Regional Weather Roundup
Issued by NWS

Home | Current Version | Previous Version | Text Only | Print | Product List | Glossary Off
Versions: 1 2 3 4 5 6 7 8 9 10 11 12 13 14 15 16 17 18 19 20 21 22 23 24 25 26 27 28 29 30 31 32 33 34 35 36 37 38 39 40 41 42 43 44 45 46 47 48 49 50

000
ASUS45 KCYS 291510
RWRWY

WYOMING REGIONAL WEATHER ROUNDUP
NATIONAL WEATHER SERVICE CHEYENNE WY
900 AM MDT WED MAR 29 2017

NOTE:  "FAIR" INDICATES FEW OR NO CLOUDS BELOW 12,000 FEET
WITH NO SIGNIFICANT WEATHER AND/OR OBSTRUCTIONS TO VISIBILITY.

WYZ001-291600-
YELLOWSTONE NATIONAL PARK

CITY           SKY/WX    TMP DP  RH WIND       PRES   REMARKS
LK YELLOWSTONE   N/A     27  23  85 CALM      30.20F
W YELLOWSTONE  NOT AVBL

$$
WYZ002>013-054>058-071-098>099-291600-
NORTHERN WYOMING

CITY           SKY/WX    TMP DP  RH WIND       PRES   REMARKS
JACKSON        SUNNY     25  21  86 N5        30.22S WCI  19
CODY           FAIR      46  23  40 W8G23     30.10F
GREYBULL       FAIR      37  32  82 CALM      30.14R
WORLAND        FAIR      37  34  89 SW3       30.13S
SHERIDAN       FAIR      39  31  72 CALM      30.09S
BUFFALO        FAIR      46  26  45 W3        30.10S
GILLETTE       FAIR      45  37  73 SW15      30.09S
HULETT         PTSUNNY   41  37  87 SW12      30.12R
NEWCASTLE      CLOUDY    41  36  81 CALM      30.13F

$$
WYZ014>020-022>026-101>103-291600-
CENTRAL WYOMING

CITY           SKY/WX    TMP DP  RH WIND       PRES   REMARKS
BIG PINEY      FAIR      32  25  75 CALM      30.21R
PINEDALE       FAIR      32  21  64 NW10      30.20R WCI  24
DUBOIS         FAIR      34  19  55 N16G24    30.15F WCI  23
LANDER         FAIR      33  29  85 CALM      30.15R
RIVERTON       FAIR      36  32  85 W8        30.15S WCI  30
CASPER         FAIR      39  35  86 SW13      30.14R WCI  31
DOUGLAS        FAIR      39  35  86 NW5       30.14F

$$
WYZ021-027>030-104>119-291600-
SOUTHERN WYOMING

CITY           SKY/WX    TMP DP  RH WIND       PRES   REMARKS
EVANSTON       FAIR      30  22  72 S7        30.23R WCI  23
KEMMERER         N/A     28  25  86 W6        30.23  WCI  22
FORT BRIDGER   FAIR      34  26  71 W13       30.26R WCI  25
ROCK SPRINGS   FAIR      32  24  72 SW12      30.20S WCI  23
DIXON            N/A     32  29  88 CALM      30.23R
RAWLINS        CLOUDY    30  28  92 SW8       30.19R WCI  22
SARATOGA       FAIR      34  30  86 CALM      30.19R
LARAMIE        CLOUDY    32  28  85 N14       30.14S WCI  22
CHEYENNE       PTSUNNY   37  32  82 N15       30.11S WCI  28
TORRINGTON     CLOUDY    42  39  89 NW9       30.10S
PINE BLUFFS    CLOUDY    37  37 100 N16G22    30.10S WCI  28

$$



USA.gov is the U.S. government's official web portal to all federal, state and local government web resources and services.